Location: Lima
(44.6384°N, 112.5920°W)
Time: 03:50:18
(UTC+00:00)

VELOX 1 - Visible Passes

Search period start: 16 April 2024 00:00
Search period end: 26 April 2024 00:00
Orbit: 607 x 619 km, 98.4° (Epoch: 15 April)

Date Brightness Start Highest point End Pass type
(mag) Time Alt. Az. Time Alt. Az. Time Alt. Az.
16 Apr ? 04:01:45 10° N 04:05:56 50° WNW 04:10:07 10° SW visible
17 Apr ? 02:41:34 10° NE 02:45:01 23° E 02:48:27 10° SSE visible
17 Apr ? 04:17:04 10° N 04:21:01 35° WNW 04:24:57 10° SW visible
18 Apr ? 02:56:21 10° NNE 03:00:16 32° E 03:04:08 10° SSE visible
18 Apr ? 04:32:28 10° N 04:36:03 26° WNW 04:39:36 10° WSW visible
19 Apr ? 03:11:16 10° NNE 03:15:26 46° E 03:19:36 10° S visible
19 Apr ? 04:47:59 10° NNW 04:51:01 19° WNW 04:54:03 10° WSW visible
20 Apr ? 03:26:15 10° NNE 03:30:35 67° ESE 03:34:53 10° S visible
20 Apr ? 05:03:44 10° NNW 05:05:58 14° WNW 05:08:11 10° W visible
21 Apr ? 03:41:19 10° NNE 03:45:40 85° WNW 03:49:59 10° SSW visible
21 Apr ? 05:20:39 10° NW 05:20:51 10° WNW 05:21:02 10° WNW visible
22 Apr ? 03:56:27 10° N 04:00:43 59° WNW 04:04:58 10° SSW visible
23 Apr ? 04:11:39 10° N 04:15:43 41° WNW 04:19:46 10° SW visible
24 Apr ? 02:51:04 10° NE 02:54:48 27° E 02:58:29 10° SSE visible
24 Apr ? 04:26:54 10° N 04:30:40 30° WNW 04:34:25 10° SW visible
25 Apr ? 03:05:50 10° NNE 03:09:54 39° E 03:13:57 10° SSE visible
25 Apr ? 04:42:16 10° NNW 04:45:34 22° WNW 04:48:53 10° WSW visible
